WX4FC Weather Reports


Display with metric or nautical units.
time (UTC)temp
F
wind
direction
speed
MPH
gust
MPH
rain 1hr
in
rain 24hr
in
rain mn
in
humidity
%
barometer
mb
20200119200424 42 315 18.0 20.0 0.00 0.00 0.00
20200119195428 42 325 17.0 15.0 0.00 0.00 0.00
20200119194430 41 329 19.0 16.0 0.00 0.00 0.00
20200119193434 41 305 19.0 13.0 0.00 0.00 0.00
20200119192439 41 285 18.0 12.0 0.00 0.00 0.00
20200119191440 41 300 9.0 13.0 0.00 0.00 0.00
20200119190445 41 314 13.0 24.0 0.00 0.00 0.00
20200119185449 41 332 13.0 15.0 0.00 0.00 0.00
20200119184451 40 312 17.0 16.0 0.00 0.00 0.00
20200119183455 40 336 14.0 16.0 0.00 0.00 0.00
20200119182500 40 322 16.0 18.0 0.00 0.00 0.00
20200119181501 40 330 13.0 11.0 0.00 0.00 0.00
20200119180506 39 323 18.0 16.0 0.00 0.00 0.00
20200119175510 39 332 14.0 17.0 0.00 0.00 0.00
20200119174512 39 326 13.0 13.0 0.00 0.00 0.00
20200119173516 38 322 14.0 14.0 0.00 0.00 0.00
20200119172521 38 328 11.0 14.0 0.00 0.00 0.00
20200119171522 38 345 12.0 11.0 0.00 0.00 0.00
20200119170527 38 309 14.0 11.0 0.00 0.00 0.00
20200119165531 37 318 16.0 17.0 0.00 0.00 0.00
20200119164532 36 336 18.0 19.0 0.00 0.00 0.00
20200119163537 36 326 12.0 14.0 0.00 0.00 0.00
20200119162542 36 312 18.0 14.0 0.00 0.00 0.00
20200119161543 36 305 11.0 8.0 0.00 0.00 0.00
20200119160547 35 335 15.0 13.0 0.00 0.00 0.00
20200119155552 34 330 18.0 17.0 0.00 0.00 0.00
20200119154553 34 322 14.0 21.0 0.00 0.00 0.00
20200119153558 34 315 10.0 18.0 0.00 0.00 0.00
20200119152603 33 339 15.0 14.0 0.00 0.00 0.00
20200119150609 32 308 17.0 23.0 0.00 0.00 0.00
20200119145613 32 318 16.0 24.0 0.00 0.00 0.00
20200119144615 31 322 18.0 20.0 0.00 0.00 0.00
20200119143619 31 307 13.0 10.0 0.00 0.00 0.00
20200119142624 31 319 17.0 18.0 0.00 0.00 0.00
20200119141626 31 321 12.0 15.0 0.00 0.00 0.00
20200119140630 30 325 12.0 6.0 0.00 0.00 0.00
20200119135635 30 338 13.0 11.0 0.00 0.00 0.00
20200119134636 30 307 9.0 9.0 0.00 0.00 0.00
20200119133640 30 304 10.0 8.0 0.00 0.00 0.00
20200119132645 30 335 10.0 9.0 0.00 0.00 0.00
20200119131646 30 329 9.0 14.0 0.00 0.00 0.00
20200119130651 30 343 11.0 12.0 0.00 0.00 0.00
20200119124657 30 323 13.0 14.0 0.00 0.00 0.00
20200119123701 30 328 12.0 12.0 0.00 0.00 0.00
20200119122706 31 318 13.0 14.0 0.00 0.00 0.00
20200119121707 31 325 11.0 10.0 0.00 0.00 0.00
20200119120711 31 321 12.0 9.0 0.00 0.00 0.00
20200119115716 31 328 13.0 15.0 0.00 0.00 0.00
20200119114717 31 330 11.0 14.0 0.00 0.00 0.00
20200119113722 31 346 11.0 9.0 0.00 0.00 0.00
20200119112727 32 321 16.0 15.0 0.00 0.00 0.00
20200119111728 32 325 14.0 15.0 0.00 0.00 0.00
20200119110732 32 323 12.0 14.0 0.00 0.00 0.00
20200119105737 32 338 14.0 12.0 0.00 0.00 0.00
20200119104738 32 321 12.0 24.0 0.00 0.00 0.00
20200119103743 33 339 15.0 12.0 0.00 0.00 0.00
20200119102747 33 316 13.0 15.0 0.00 0.00 0.00
20200119101749 33 345 11.0 16.0 0.00 0.00 0.00
20200119100753 33 340 12.0 10.0 0.00 0.00 0.00
20200119095758 33 342 14.0 15.0 0.00 0.00 0.00
20200119094759 34 322 15.0 12.0 0.00 0.00 0.00
20200119093804 34 291 14.0 12.0 0.00 0.00 0.00
20200119092808 34 328 14.0 15.0 0.00 0.00 0.00
20200119091810 34 316 10.0 9.0 0.00 0.00 0.00
20200119090814 35 326 11.0 11.0 0.00 0.00 0.00
20200119085819 35 352 13.0 12.0 0.00 0.00 0.00
20200119084821 35 329 15.0 15.0 0.00 0.00 0.00
20200119083825 36 321 15.0 10.0 0.00 0.00 0.00
20200119082830 36 336 15.0 11.0 0.00 0.00 0.00
20200119081831 36 338 9.0 7.0 0.00 0.00 0.00
20200119080835 37 321 11.0 7.0 0.00 0.00 0.00
20200119075840 37 336 10.0 10.0 0.00 0.00 0.00
20200119074841 37 330 11.0 9.0 0.00 0.00 0.00
20200119073846 37 332 12.0 11.0 0.00 0.00 0.00
20200119072851 37 345 7.0 8.0 0.00 0.00 0.00
20200119071852 37 336 10.0 12.0 0.00 0.00 0.00
20200119070856 38 328 13.0 14.0 0.00 0.00 0.00
20200119065901 38 329 12.0 9.0 0.00 0.00 0.00
20200119064902 38 339 12.0 13.0 0.00 0.00 0.00
20200119063907 38 336 12.0 8.0 0.00 0.00 0.00
20200119062912 39 338 10.0 7.0 0.00 0.00 0.00
20200119061913 39 330 13.0 13.0 0.00 0.00 0.00
20200119060917 39 302 14.0 14.0 0.00 0.00 0.00
20200119055922 40 335 10.0 14.0 0.00 0.00 0.00
20200119054924 40 323 13.0 19.0 0.00 0.00 0.00
20200119053928 41 329 15.0 16.0 0.00 0.00 0.00
20200119052933 41 322 13.0 15.0 0.00 0.00 0.00
20200119051934 42 4 11.0 11.0 0.00 0.00 0.00
20200119050939 43 335 16.0 13.0 0.00 0.00 0.00
20200119045943 43 338 16.0 12.0 0.00 0.00 0.00
20200119044945 44 346 15.0 14.0 0.00 0.00 0.00
20200119043949 44 333 16.0 16.0 0.00 0.00 0.00
20200119042954 45 316 16.0 13.0 0.00 0.00 0.00
20200119041955 45 302 14.0 22.0 0.00 0.00 0.00
20200119041000 46 322 17.0 15.0 0.00 0.00 0.00
20200119040004 46 336 12.0 8.0 0.00 0.00 0.00
20200119035006 47 325 17.0 14.0 0.00 0.00 0.00
20200119034010 47 318 17.0 17.0 0.00 0.00 0.00
20200119033015 48 325 13.0 15.0 0.00 0.00 0.00
20200119032017 48 330 15.0 11.0 0.00 0.00 0.00
20200119031021 49 336 17.0 15.0 0.00 0.00 0.00
20200119030025 50 347 16.0 14.0 0.00 0.00 0.00
20200119025027 50 312 16.0 12.0 0.00 0.00 0.00
20200119024033 51 330 13.0 12.0 0.00 0.00 0.00
20200119023036 51 311 17.0 15.0 0.00 0.00 0.00
20200119022037 52 302 13.0 14.0 0.00 0.00 0.00
20200119021042 52 332 13.0 13.0 0.00 0.00 0.00
20200119020047 52 338 10.0 12.0 0.00 0.00 0.00
20200119015048 53 326 11.0 10.0 0.00 0.00 0.00
20200119014052 53 326 11.0 11.0 0.00 0.00 0.00
20200119013057 53 309 11.0 12.0 0.00 0.00 0.00
20200119012100 54 315 13.0 12.0 0.00 0.00 0.00
20200119011103 54 326 13.0 9.0 0.00 0.00 0.00
20200119010107 54 302 11.0 7.0 0.00 0.00 0.00
20200119005109 55 316 11.0 10.0 0.00 0.00 0.00
20200119004113 56 319 8.0 9.0 0.00 0.00 0.00
20200119003118 56 297 1.0 7.0 0.00 0.00 0.00
20200119002119 56 319 4.0 6.0 0.00 0.00 0.00
20200119001124 56 295 3.0 8.0 0.00 0.00 0.00
20200119000128 56 294 5.0 6.0 0.00 0.00 0.00
20200118235129 56 276 9.0 9.0 0.00 0.00 0.00
20200118234134 56 307 6.0 5.0 0.00 0.00 0.00
20200118233138 56 231 8.0 1.0 0.00 0.00 0.00
20200118232139 56 253 5.0 3.0 0.00 0.00 0.00
20200118231145 56 243 6.0 7.0 0.00 0.00 0.00
20200118230148 56 287 7.0 8.0 0.00 0.00 0.00
20200118225150 56 276 7.0 8.0 0.00 0.00 0.00
20200118224154 56 249 4.0 3.0 0.00 0.00 0.00
20200118223158 56 226 9.0 8.0 0.00 0.00 0.00
20200118222200 56 266 11.0 9.0 0.00 0.00 0.00
20200118221205 56 218 7.0 6.0 0.00 0.00 0.00
20200118220209 56 235 10.0 8.0 0.00 0.00 0.00
20200118214215 56 243 8.0 8.0 0.00 0.00 0.00
20200118213219 56 235 10.0 9.0 0.00 0.00 0.00
20200118212221 56 225 11.0 12.0 0.00 0.00 0.00
20200118211225 56 221 9.0 9.0 0.00 0.00 0.00
20200118210230 56 207 10.0 8.0 0.00 0.00 0.00
20200118205231 55 228 15.0 10.0 0.00 0.00 0.00
20200118204236 55 240 11.0 9.0 0.00 0.00 0.00
20200118203240 55 262 8.0 11.0 0.00 0.00 0.00
20200118202243 55 259 14.0 10.0 0.00 0.00 0.00
20200118201246 55 235 16.0 21.0 0.00 0.00 0.00